Stündliche Wetter Wartule

Heute, 21 Oktober, Mittwoch

Zeit Temperatur Niederschläge Wind Luftdruck Luftfeuchtigkeit
00:00 +8°C° 0 mm 5 m/S 751 mmHg 74%
01:00 +8°C° 0 mm 5 m/S 751 mmHg 75%
02:00 +8°C° 0.2 mm 5 m/S 750 mmHg 79%
03:00 +8°C° 0.2 mm 4 m/S 750 mmHg 83%
04:00 +8°C° 0.2 mm 4 m/S 750 mmHg 87%
05:00 +8°C° 0 mm 4 m/S 750 mmHg 88%
06:00 +8°C° 0 mm 4 m/S 750 mmHg 90%
07:00 +8°C° 0 mm 4 m/S 750 mmHg 88%
08:00 +8°C° 0.1 mm 5 m/S 750 mmHg 89%
09:00 +8°C° 0.1 mm 5 m/S 750 mmHg 89%
10:00 +9°C° 0.1 mm 5 m/S 750 mmHg 89%
11:00 +9°C° 0.1 mm 5 m/S 750 mmHg 87%
12:00 +10°C° 0.1 mm 4 m/S 750 mmHg 85%
13:00 +10°C° 0.1 mm 4 m/S 750 mmHg 84%
14:00 +10°C° 0.2 mm 4 m/S 750 mmHg 85%
15:00 +10°C° 0.2 mm 4 m/S 749 mmHg 87%
16:00 +8°C° 0.2 mm 4 m/S 749 mmHg 88%
17:00 +10°C° 0.1 mm 4 m/S 749 mmHg 85%
18:00 +10°C° 0.1 mm 4 m/S 749 mmHg 82%
19:00 +9°C° 0.1 mm 5 m/S 749 mmHg 79%
20:00 +9°C° 0 mm 5 m/S 749 mmHg 79%
21:00 +9°C° 0 mm 5 m/S 749 mmHg 79%
22:00 +9°C° 0 mm 5 m/S 748 mmHg 79%
23:00 +9°C° 0 mm 5 m/S 748 mmHg 79%

Morgen, 22 Oktober, Donnerstag

Zeit Temperatur Niederschläge Wind Luftdruck Luftfeuchtigkeit
00:00 +9°C° 0 mm 6 m/S 748 mmHg 79%
01:00 +9°C° 0 mm 6 m/S 749 mmHg 79%
02:00 +9°C° 0 mm 6 m/S 748 mmHg 78%
03:00 +9°C° 0 mm 6 m/S 748 mmHg 77%
04:00 +9°C° 0 mm 6 m/S 747 mmHg 77%
05:00 +10°C° 0 mm 6 m/S 748 mmHg 77%
06:00 +10°C° 0 mm 7 m/S 748 mmHg 77%
07:00 +10°C° 0 mm 7 m/S 748 mmHg 77%
08:00 +11°C° 0 mm 7 m/S 748 mmHg 75%
09:00 +13°C° 0 mm 8 m/S 749 mmHg 73%
10:00 +15°C° 0 mm 8 m/S 749 mmHg 71%
11:00 +15°C° 0 mm 7 m/S 749 mmHg 71%
12:00 +16°C° 0 mm 7 m/S 750 mmHg 70%
13:00 +16°C° 0 mm 6 m/S 750 mmHg 70%
14:00 +16°C° 0 mm 5 m/S 750 mmHg 72%
15:00 +15°C° 0 mm 5 m/S 750 mmHg 75%
16:00 +15°C° 0 mm 4 m/S 750 mmHg 77%
17:00 +14°C° 0 mm 4 m/S 750 mmHg 80%
18:00 +14°C° 0 mm 4 m/S 750 mmHg 82%
19:00 +13°C° 0 mm 4 m/S 750 mmHg 85%
20:00 +13°C° 0 mm 4 m/S 750 mmHg 86%
21:00 +12°C° 0 mm 4 m/S 750 mmHg 87%
22:00 +12°C° 0 mm 4 m/S 750 mmHg 88%
23:00 +12°C° 0 mm 4 m/S 750 mmHg 88%

übermorgen, 23 Oktober, Freitag

Zeit Temperatur Niederschläge Wind Luftdruck Luftfeuchtigkeit
00:00 +12°C° 0 mm 4 m/S 749 mmHg 88%
01:00 +12°C° 0 mm 5 m/S 749 mmHg 88%
02:00 +12°C° 0.2 mm 5 m/S 749 mmHg 87%
03:00 +13°C° 0.2 mm 6 m/S 748 mmHg 86%
04:00 +13°C° 0.2 mm 6 m/S 748 mmHg 86%
05:00 +13°C° 0.6 mm 6 m/S 748 mmHg 87%
06:00 +13°C° 0.6 mm 6 m/S 748 mmHg 89%
07:00 +13°C° 0.6 mm 5 m/S 748 mmHg 91%
08:00 +13°C° 0.1 mm 5 m/S 748 mmHg 88%
09:00 +14°C° 0.1 mm 5 m/S 748 mmHg 85%
10:00 +15°C° 0.1 mm 6 m/S 748 mmHg 83%
11:00 +15°C° 0.2 mm 6 m/S 748 mmHg 79%
12:00 +16°C° 0.2 mm 6 m/S 748 mmHg 75%
13:00 +16°C° 0.2 mm 6 m/S 748 mmHg 71%
14:00 +15°C° 0 mm 5 m/S 748 mmHg 73%
15:00 +15°C° 0 mm 4 m/S 748 mmHg 74%
16:00 +14°C° 0 mm 3 m/S 748 mmHg 76%
17:00 +13°C° 0 mm 3 m/S 748 mmHg 80%
18:00 +13°C° 0 mm 2 m/S 748 mmHg 84%
19:00 +12°C° 0 mm 2 m/S 749 mmHg 88%
20:00 +10°C° 0 mm 2 m/S 749 mmHg 89%
21:00 +11°C° 0 mm 1 m/S 749 mmHg 90%
22:00 +10°C° 0 mm 1 m/S 749 mmHg 91%
23:00 +10°C° 0 mm 1 m/S 749 mmHg 91%

24 Oktober, Samstag

Zeit Temperatur Niederschläge Wind Luftdruck Luftfeuchtigkeit
00:00 +10°C° 0 mm 1 m/S 749 mmHg 90%
01:00 +10°C° 0 mm 1 m/S 749 mmHg 90%
02:00 +10°C° 0 mm 1 m/S 749 mmHg 91%
03:00 +9°C° 0 mm 1 m/S 748 mmHg 91%
04:00 +8°C° 0 mm 2 m/S 748 mmHg 92%
05:00 +8°C° 0 mm 2 m/S 748 mmHg 93%
06:00 +8°C° 0 mm 2 m/S 748 mmHg 93%
07:00 +8°C° 0 mm 3 m/S 748 mmHg 94%
08:00 +8°C° 0.1 mm 4 m/S 748 mmHg 92%
09:00 +11°C° 0.1 mm 4 m/S 748 mmHg 90%
10:00 +12°C° 0.1 mm 5 m/S 748 mmHg 88%
11:00 +11°C° 0.1 mm 6 m/S 748 mmHg 81%
12:00 +13°C° 0.1 mm 6 m/S 748 mmHg 75%
13:00 +14°C° 0.1 mm 7 m/S 748 mmHg 68%
14:00 +13°C° 0.1 mm 6 m/S 749 mmHg 69%
15:00 +12°C° 0.1 mm 5 m/S 749 mmHg 69%
16:00 +11°C° 0.1 mm 4 m/S 749 mmHg 70%
17:00 +10°C° 0 mm 4 m/S 750 mmHg 74%
18:00 +8°C° 0 mm 4 m/S 751 mmHg 78%
19:00 +7°C° 0 mm 4 m/S 751 mmHg 82%
20:00 +7°C° 0 mm 4 m/S 751 mmHg 84%
21:00 +7°C° 0 mm 3 m/S 752 mmHg 87%
22:00 +7°C° 0 mm 3 m/S 752 mmHg 89%
23:00 +7°C° 0 mm 3 m/S 752 mmHg 90%

25 Oktober, Sonntag

Zeit Temperatur Niederschläge Wind Luftdruck Luftfeuchtigkeit
00:00 +5°C° 0 mm 3 m/S 752 mmHg 91%
01:00 +5°C° 0 mm 3 m/S 752 mmHg 91%
02:00 +5°C° 0 mm 3 m/S 752 mmHg 91%
03:00 +5°C° 0 mm 3 m/S 752 mmHg 90%
04:00 +5°C° 0 mm 3 m/S 753 mmHg 90%
05:00 +5°C° 0 mm 3 m/S 752 mmHg 90%
06:00 +5°C° 0 mm 3 m/S 752 mmHg 89%
07:00 +5°C° 0 mm 3 m/S 752 mmHg 89%
08:00 +7°C° 0 mm 4 m/S 752 mmHg 85%
09:00 +9°C° 0 mm 5 m/S 752 mmHg 81%
10:00 +12°C° 0 mm 5 m/S 752 mmHg 77%
11:00 +11°C° 0 mm 6 m/S 752 mmHg 73%
12:00 +13°C° 0 mm 6 m/S 751 mmHg 70%
13:00 +14°C° 0 mm 6 m/S 751 mmHg 66%
14:00 +14°C° 0 mm 5 m/S 751 mmHg 70%
15:00 +13°C° 0 mm 4 m/S 750 mmHg 74%
16:00 +12°C° 0 mm 4 m/S 750 mmHg 77%
17:00 +12°C° 0 mm 4 m/S 750 mmHg 80%
18:00 +11°C° 0 mm 4 m/S 750 mmHg 82%
19:00 +10°C° 0 mm 4 m/S 750 mmHg 85%
20:00 +10°C° 0 mm 4 m/S 750 mmHg 85%
21:00 +10°C° 0 mm 4 m/S 750 mmHg 86%
22:00 +10°C° 0 mm 4 m/S 750 mmHg 86%
23:00 +10°C° 0 mm 4 m/S 750 mmHg 87%

26 Oktober, Montag

Zeit Temperatur Niederschläge Wind Luftdruck Luftfeuchtigkeit
00:00 +10°C° 0 mm 4 m/S 750 mmHg 88%
01:00 +10°C° 0 mm 4 m/S 750 mmHg 88%
02:00 +8°C° 0 mm 4 m/S 750 mmHg 88%
03:00 +8°C° 0 mm 4 m/S 749 mmHg 88%
04:00 +8°C° 0 mm 4 m/S 749 mmHg 88%
05:00 +8°C° 0 mm 4 m/S 749 mmHg 89%
06:00 +8°C° 0 mm 4 m/S 749 mmHg 89%
07:00 +8°C° 0 mm 4 m/S 749 mmHg 90%
08:00 +10°C° 0 mm 4 m/S 749 mmHg 84%
09:00 +12°C° 0 mm 4 m/S 749 mmHg 78%
10:00 +13°C° 0 mm 5 m/S 750 mmHg 72%
11:00 +14°C° 0 mm 4 m/S 749 mmHg 70%
12:00 +14°C° 0 mm 4 m/S 749 mmHg 68%
13:00 +15°C° 0 mm 4 m/S 749 mmHg 66%
14:00 +14°C° 0 mm 4 m/S 749 mmHg 70%
15:00 +13°C° 0 mm 4 m/S 748 mmHg 75%
16:00 +12°C° 0 mm 3 m/S 748 mmHg 79%
17:00 +12°C° 0 mm 4 m/S 748 mmHg 80%
18:00 +12°C° 0 mm 4 m/S 748 mmHg 80%
19:00 +12°C° 0 mm 4 m/S 748 mmHg 81%
20:00 +12°C° 0 mm 4 m/S 748 mmHg 82%
21:00 +11°C° 0 mm 4 m/S 748 mmHg 83%
22:00 +11°C° 0 mm 3 m/S 748 mmHg 84%
23:00 +11°C° 0 mm 3 m/S 748 mmHg 86%

27 Oktober, Dienstag

Zeit Temperatur Niederschläge Wind Luftdruck Luftfeuchtigkeit
00:00 +11°C° 0 mm 3 m/S 748 mmHg 88%
01:00 +10°C° 0 mm 3 m/S 748 mmHg 90%
02:00 +10°C° 0 mm 3 m/S 748 mmHg 91%
03:00 +10°C° 0 mm 3 m/S 748 mmHg 92%
04:00 +10°C° 0 mm 3 m/S 748 mmHg 92%
05:00 +9°C° 0 mm 3 m/S 748 mmHg 92%
06:00 +9°C° 0 mm 3 m/S 748 mmHg 92%
07:00 +9°C° 0 mm 3 m/S 748 mmHg 92%
08:00 +10°C° 0 mm 3 m/S 749 mmHg 89%
09:00 +11°C° 0 mm 3 m/S 749 mmHg 86%
10:00 +11°C° 0 mm 3 m/S 749 mmHg 83%
11:00 +12°C° 0 mm 3 m/S 749 mmHg 79%
12:00 +14°C° 0 mm 3 m/S 749 mmHg 75%
13:00 +16°C° 0 mm 3 m/S 750 mmHg 72%
14:00 +14°C° 0 mm 3 m/S 750 mmHg 75%
15:00 +14°C° 0 mm 2 m/S 750 mmHg 78%
16:00 +14°C° 0 mm 2 m/S 750 mmHg 81%
17:00 +13°C° 0 mm 2 m/S 751 mmHg 84%
18:00 +12°C° 0 mm 2 m/S 751 mmHg 87%
19:00 +12°C° 0 mm 2 m/S 752 mmHg 90%
20:00 +12°C° 0 mm 2 m/S 752 mmHg 91%
21:00 +10°C° 0 mm 2 m/S 752 mmHg 92%
22:00 +10°C° 0 mm 2 m/S 753 mmHg 93%
23:00 +10°C° 0 mm 2 m/S 753 mmHg 93%
Mehr zeigen

Wir brauchen deine Erlaubnis

Meteoprog und unser Service Anbieter werden persönliche Daten aufbewahren, so wie Cookies, Geräte Bezeichnung oder ähnliche Technologien von deinem Gerät und Prozess, so wie Persönliche Daten Inhalte und Werbungen, genauso wie social Media und den Verkehr zu analysieren.

  • Aufbewahrung und/oder Zugang zu deiner Geräte Informationen.

    Cookies, Geräte Bezeichnung oder andere Informationen, können aufbewahrt oder Zugang zu deinem Gerät erhalten, für den Grund, der oben angegeben wird.

  • Personalisierte Werbung und Inhalte, Messungen, Einblick in das Publikum und Produkt Entwicklung.

    Werbungen und Inhalte können personalisiert werden, basierend auf ein Profil. Mehr Daten können besser personalisierte Werbungen und Inhalte hinzufügen. Werbung und Inhalte können gezeigt und gemessen werden. Einblicke über das Publikum, welche die Werbung gesehen haben und den Inhalt, können abgeleitet werden. So wie Daten können genutzt werden, um es zu verbessern oder die Benutzer Erfahrung zu verbessern das System und die Software.

Wenn du “Ich stimme zu” klickst, erlaubst du uns, die Cookies zu benutzen die Geräte Bezeichnung, den Web oder ähnliche Technologien zu benutzen. Deine Settings, können in deinem Gerät bei deinem Browser geändert werden.

Für den bestimmten Zweck, berechtigten Interessen beruhen darauf, mehr als auf den Inhalt. Du kannst mehr darüber in unseren Privaten und Cookie Politik lesen.